Regional Weather Roundup
Issued by NWS Sterling, VA

Home | Current Version | Previous Version | Text Only | Print | Product List | Glossary Off
Versions: 1 2 3 4 5 6 7 8 9 10 11 12 13 14 15 16 17 18 19 20 21 22 23 24 25 26 27 28

000
ASUS41 KLWX 311010
RWRLWX

REGIONAL WEATHER ROUNDUP
NATIONAL WEATHER SERVICE BALTIMORE MD/WASHINGTON DC
600 AM EDT TUE MAY 31 2016

Note: "FAIR" indicates few or no clouds below 12,000 feet
with no significant weather and/or obstructions to visibility.
 TC=TEMPERATURE CELSIUS

 * =Non NWS site. Station does not report precipitation (e.g. rain,
    snow, etc.), thunder, or fog.

DCZ001-MDZ009-015-VAZ040>042-051-053>054-311100-
WASHINGTON METRO

CITY           SKY/WX    TMP DP  RH WIND       PRES   REMARKS
WASHINGTON NAT CLOUDY    72  64  76 NW5       29.95S
DULLES         FOG       69  67  93 CALM      29.96S VSB 1/4
ANDREWS AFB    CLOUDY    66  64  94 CALM      29.95R
FT BELVOIR       N/A    N/A N/A N/A CALM        N/A
QUANTICO       MOCLDY    68  66  93 NW3       29.96S
COLLEGE PARK*  CLOUDY    68  66  94 CALM      29.94F
LEESBURG*      CLOUDY    70  70 100 CALM      29.97S FOG
MANASSAS*      CLOUDY    68  68 100 CALM      29.95F

$$

MDZ006>007-011-014-311100-
BALTIMORE METRO

CITY           SKY/WX    TMP DP  RH WIND       PRES   REMARKS
BWI AIRPORT    PTCLDY    67  65  93 CALM      29.94S
MD SCIENCE CTR   N/A     71  67  87 MISG      29.94F
MARTIN STATE   PTCLDY    70  70 100 CALM      29.96R
ANNAPOLIS      CLEAR     67  66  97 CALM      29.94S
FORT MEADE*    MOCLDY    64  63  94 CALM      29.97F

$$

MDZ012-015-019>023-311100-
MARYLAND EASTERN SHORE

CITY           SKY/WX    TMP DP  RH WIND       PRES   REMARKS
OCEAN CITY     CLOUDY    65  65 100 CALM      29.95R FOG
SALISBURY      CLOUDY    66  66 100 CALM      29.95R
BAY BRIDGE AP* PTCLDY    66  66 100 CALM      29.95S FOG
CAMBRIDGE*       N/A     63  63 100 CALM      29.95S
EASTON*        CLOUDY    68  68 100 CALM      29.99R FOG

$$

MDZ017>025-311100-
SOUTHERN MARYLAND

CITY           SKY/WX    TMP DP  RH WIND       PRES   REMARKS
PATUXENT RIVER CLOUDY    68  66  93 W3        29.95R
ST INIGOES     CLOUDY    68  67  96 CALM      29.95R
LEONARDTOWN*   CLOUDY    64  64 100 CALM      29.97R

$$

MDZ003>005-311100-
NORTH CENTRAL MARYLAND

CITY           SKY/WX    TMP DP  RH WIND       PRES   REMARKS
FREDERICK*     PTCLDY    68  68 100 CALM      29.99R
HAGERSTOWN APT CLEAR     66  62  87 CALM      29.97S FOG
WESTMINSTER*   MOCLDY    68  64  88 CALM      29.97S

$$

MDZ501>502-311100-
WESTERN MARYLAND

CITY           SKY/WX    TMP DP  RH WIND       PRES   REMARKS
OAKLAND*       CLEAR     63  50  63 CALM      30.08R
CUMBERLAND*    MOCLDY    61  61 100 CALM      30.05R

$$

VAZ025>031-311100-
SHENANDOAH VALLEY

CITY           SKY/WX    TMP DP  RH WIND       PRES   REMARKS
WINCHESTER*    FAIR      61  61 100 CALM      29.98R FOG
FRONT ROYAL*   CLOUDY    64  64 100 SW3       29.97R VSB 1/2
LURAY*         FOG       63  63 100 CALM      29.99R VSB<1/4
NEW MARKET*    CLOUDY    63  63 100 CALM      29.99R VSB<1/4
STAUNTON*      FOG       60  60  99 CALM      30.03R VSB 1/4
WAYNESBORO*    FAIR      60  59  97 CALM      30.01S

$$

WVZ021-048>050-054>055-311100-
EASTERN WEST VIRGINIA PANHANDLE

CITY           SKY/WX    TMP DP  RH WIND       PRES   REMARKS
MARTINSBURG    MOCLDY    61  61 100 CALM      29.97R FOG
PETERSBURG*    FOG       61  61 100 CALM      30.02S VSB 1/4

$$

VAZ036>039-050-311100-
CENTRAL FOOTHILLS

CITY           SKY/WX    TMP DP  RH WIND       PRES   REMARKS
CHARLOTTESVILL FOG       64  62  93 W5        29.97R VSB 1/4
CULPEPER*      CLOUDY    69  69  99 CALM      29.97R
ORANGE*        MOCLDY    66  66 100 CALM      29.98R FOG
GORDONSVILLE*  FOG       65  65 100 CALM      29.96R VSB 1/4
WARRENTON*     CLOUDY    69  65  85 CALM      29.95S FOG

$$

VAZ055>057-311100-
NORTH AND CENTRAL PIEDMONT

CITY           SKY/WX    TMP DP  RH WIND       PRES   REMARKS
FREDERICKSBRG* CLOUDY    66  66 100 CALM      29.94F FOG
STAFFORD*      CLOUDY    62  61  97 CALM      29.99S VSB 1/4

$$

NCZ024-NYZ072-PAZ021-071-VAZ022-071-311100-
OTHER REGIONAL OBSERVATIONS

CITY           SKY/WX    TMP DP  RH WIND       PRES   REMARKS
NEW YORK CITY  CLOUDY    72  67  84 VRB3      29.96R
PHILADELPHIA   CLOUDY    71  67  87 SW3       29.95S
PITTSBURGH     MOCLDY    61  56  83 CALM      29.99S
ROANOKE        FAIR      64  62  93 CALM      30.02R
RICHMOND       CLOUDY    66  65  96 CALM      29.94S FOG
RALEIGH        CLOUDY    70  69  97 CALM      29.94R FOG

$$

ANZ530>537-311100-
MARINE OBSERVATIONS

STATION/POSITION TIME  TEMP    WIND        PRES
                       AIR SEA DIR/SP/G
                 (UTC) (F)     (DEG/KT/KT) (MB)
THOMAS PT LIGHT  1000   69 70  180/  3/  3 1015.5R
BALT KEY BRIDGE  0900   70     260/  5/  5 1013.7F
COVE POINT       0900   67      CALM  /  1 1014.4R
LEWISETTA        0900   68 71     CALM     1013.4S
SOLOMONS ISLAND  0900   68 67  240/  2/  2   N/A
PINEY POINT      0900          210/  4/  4   N/A

$$





USA.gov is the U.S. government's official web portal to all federal, state and local government web resources and services.